Weather History for KMUO - December, 2013

Change the Weather History Date:

Friday, December 6, 2013

  Actual Average Record
Temperature  
Mean Temperature 18 °F 31 °F  
Max Temperature 23 °F 39 °F 64 °F (1939)
Min Temperature 12 °F 22 °F 2 °F (1992)
Degree Days  
Heating Degree Days 48 34  
Month to date heating degree days 177 199  
Cooling Degree Days 0 0  
Month to date cooling degree days 0 0  
Moisture  
Dew Point 10 °F    
Average Humidity 68    
Maximum Humidity 86    
Minimum Humidity 49    
Precipitation  
Precipitation T in 0.06 in 0.51 in (1995)
Month to date precipitation 0.01 0.36  
Sea Level Pressure  
Sea Level Pressure 30.06 in    
Wind  
Wind Speed 14 mph (ESE)    
Max Wind Speed 29 mph    
Max Gust Speed 38 mph    
Visibility 9 miles    
Events Snow    
T = Trace of Precipitation, MM = Missing Value Source: NWS Daily Summary

Daily Weather History Graph

Daily Weather History Graph

Search for Another Location

Airport or City:

Trip Planner

Search our weather history database for the weather conditions in past years. The results will help you decide how hot, cold, wet, or windy it might be!

Date:

Astronomy

Dec. 06, 2013 Rise Set
Actual Time 8:00 AM MST 5:08 PM MST
Civil Twilight 7:28 AM MST 5:40 PM MST
Nautical Twilight 6:52 AM MST 6:16 PM MST
Astronomical Twilight 6:18 AM MST 6:50 PM MST
Moon 11:05 AM MST (12/6) 9:50 PM MST (12/6)
Length of Visible Light 10h 12m
Length of Day
9h 08m
Waxing Crescent, 20% of the Moon is Illuminated
Dec 6
Waxing Crescent
Dec 9
First Quarter
Dec 17
Full
Dec 25
Last Quarter
Jan 1
New

Hourly Weather History & Observations

Time (MST) Temp. Windchill Dew Point Humidity Pressure Visibility Wind Dir Wind Speed Gust Speed Precip Events Conditions
12:58 AM 12.0 °F 2.7 °F 7.2 °F 81% 30.23 in 10.0 mi East 5.8 mph - N/A   Overcast
1:18 AM 12.2 °F 0.7 °F 6.8 °F 79% 30.09 in 10.0 mi East 8.1 mph - N/A   Overcast
1:23 AM 12.2 °F 1.7 °F 6.8 °F 79% 30.09 in 10.0 mi East 6.9 mph - N/A   Overcast
1:43 AM 12.2 °F 1.7 °F 8.6 °F 85% 30.09 in 10.0 mi East 6.9 mph - N/A   Scattered Clouds
1:48 AM 12.2 °F 0.7 °F 8.6 °F 85% 30.09 in 10.0 mi East 8.1 mph - N/A   Mostly Cloudy
1:58 AM 13.1 °F 2.8 °F 8.1 °F 80% 30.22 in 10.0 mi East 6.9 mph - N/A   Mostly Cloudy
2:58 AM 15.6 °F 4.9 °F 8.6 °F 74% 30.21 in 10.0 mi East 8.1 mph - N/A   Overcast
3:53 AM 15.8 °F 5.1 °F 8.6 °F 73% 30.09 in 10.0 mi ESE 8.1 mph - N/A   Overcast
3:58 AM 16.2 °F 5.5 °F 8.4 °F 72% 30.20 in 10.0 mi ESE 8.1 mph - N/A   Overcast
4:33 AM 15.8 °F 4.2 °F 8.6 °F 73% 30.08 in 10.0 mi ESE 9.2 mph - N/A   Overcast
4:58 AM 14.9 °F 3.1 °F 8.4 °F 76% 30.21 in 10.0 mi ESE 9.2 mph - N/A   Mostly Cloudy
5:13 AM 14.0 °F 1.2 °F 8.6 °F 79% 30.08 in 10.0 mi ESE 10.4 mph - N/A   Overcast
5:58 AM 13.3 °F 0.3 °F 8.6 °F 82% 30.20 in 10.0 mi SE 10.4 mph - N/A   Overcast
6:18 AM 14.0 °F 2.9 °F 8.6 °F 79% 30.08 in 10.0 mi SE 8.1 mph - N/A   Mostly Cloudy
6:28 AM 14.0 °F 1.2 °F 8.6 °F 79% 30.08 in 10.0 mi SE 10.4 mph - N/A   Mostly Cloudy
6:58 AM 15.8 °F 0.3 °F 8.6 °F 73% 30.22 in 10.0 mi ESE 16.1 mph - N/A   Mostly Cloudy
7:58 AM 15.6 °F -0.4 °F 9.3 °F 76% 30.22 in 10.0 mi SE 17.3 mph - N/A   Mostly Cloudy
8:58 AM 16.3 °F 0.5 °F 9.5 °F 74% 30.22 in 10.0 mi ESE 17.3 mph - N/A   Overcast
9:37 AM 15.8 °F -1.5 °F 8.6 °F 73% 30.10 in 4.0 mi ESE 20.7 mph - N/A Snow Low Drifting Snow
9:58 AM 16.9 °F -0.5 °F 10.0 °F 75% 30.24 in 5.0 mi ESE 21.9 mph - N/A Snow Low Drifting Snow
10:58 AM 18.0 °F 1.3 °F 10.0 °F 71% 30.25 in 2.0 mi ESE 20.7 mph - N/A Snow Light Snow
11:44 AM 19.4 °F 2.5 °F 14.0 °F 80% 30.09 in 5.0 mi ESE 23.0 mph 27.6 mph N/A Snow Light Snow
11:58 AM 20.3 °F 3.7 °F 12.9 °F 73% 30.22 in 7.0 mi ESE 23.0 mph - 0.00 in   Mostly Cloudy
12:29 PM 21.2 °F 5.2 °F 12.2 °F 68% 30.07 in 10.0 mi ESE 21.9 mph 27.6 mph N/A   Scattered Clouds
12:58 PM 21.7 °F 5.6 °F 11.7 °F 65% 30.19 in 10.0 mi ESE 23.0 mph - N/A   Mostly Cloudy
1:58 PM 22.6 °F 7.5 °F 9.7 °F 58% 30.16 in 10.0 mi ESE 20.7 mph - N/A   Scattered Clouds
2:58 PM 23.9 °F 9.5 °F 8.1 °F 51% 30.12 in 10.0 mi ESE 19.6 mph 24.2 mph N/A   Partly Cloudy
3:58 PM 22.8 °F 8.5 °F 6.3 °F 49% 30.12 in 10.0 mi ESE 18.4 mph - N/A   Scattered Clouds
4:58 PM 21.4 °F 7.5 °F 6.3 °F 52% 30.12 in 10.0 mi ESE 16.1 mph - N/A   Scattered Clouds
5:58 PM 20.8 °F 6.4 °F 6.6 °F 54% 30.08 in 10.0 mi East 17.3 mph - N/A   Scattered Clouds
6:58 PM 21.0 °F 4.6 °F 6.6 °F 54% 30.06 in 10.0 mi ESE 23.0 mph - N/A   Overcast
7:58 PM 21.0 °F 4.3 °F 6.4 °F 53% 30.06 in 10.0 mi ESE 24.2 mph - N/A   Mostly Cloudy
8:08 PM 21.2 °F 5.6 °F 6.8 °F 54% 29.93 in 10.0 mi ESE 20.7 mph 29.9 mph N/A   Mostly Cloudy
8:38 PM 21.2 °F 6.0 °F 6.8 °F 54% 29.91 in 10.0 mi ESE 19.6 mph 27.6 mph N/A   Overcast
8:43 PM 21.2 °F 4.9 °F 6.8 °F 54% 29.91 in 10.0 mi ESE 23.0 mph 31.1 mph N/A   Overcast
8:58 PM 22.3 °F 7.0 °F 6.8 °F 52% 30.01 in 10.0 mi ESE 20.7 mph 31.1 mph N/A   Overcast
9:58 PM 23.0 °F 6.9 °F 7.9 °F 52% 29.99 in 10.0 mi ESE 24.2 mph 34.5 mph N/A   Overcast
10:08 PM 23.0 °F 6.6 °F 8.6 °F 54% 29.88 in 10.0 mi ESE 25.3 mph 34.5 mph N/A   Overcast
10:13 PM 23.0 °F 6.0 °F 10.4 °F 59% 29.87 in 9.0 mi ESE 27.6 mph 38.0 mph N/A   Overcast
10:28 PM 23.0 °F 5.7 °F 12.2 °F 63% 29.87 in 7.0 mi ESE 28.8 mph 35.7 mph N/A   Overcast
10:42 PM 23.0 °F 7.2 °F 14.0 °F 68% 29.87 in 8.0 mi ESE 23.0 mph 32.2 mph N/A   Light Freezing Drizzle
10:52 PM 23.0 °F 7.6 °F 12.2 °F 63% 29.87 in 10.0 mi East 21.9 mph 33.4 mph N/A   Light Freezing Drizzle
10:58 PM 22.3 °F 5.9 °F 12.7 °F 67% 29.98 in 10.0 mi ESE 24.2 mph 29.9 mph 0.00 in   Light Freezing Drizzle
11:08 PM 23.0 °F 7.2 °F 12.2 °F 63% 29.87 in 9.0 mi East 23.0 mph 29.9 mph N/A   Light Freezing Drizzle
11:11 PM 23.0 °F 6.6 °F 12.2 °F 63% 29.86 in 9.0 mi East 25.3 mph 29.9 mph N/A   Overcast
11:21 PM 23.0 °F 7.6 °F 14.0 °F 68% 29.86 in 8.0 mi ESE 21.9 mph - N/A   Overcast
11:45 PM 21.2 °F 4.9 °F 17.6 °F 86% 29.85 in 4.0 mi East 23.0 mph 29.9 mph N/A Snow Light Snow
11:55 PM 21.2 °F 4.2 °F 17.6 °F 86% 29.85 in 5.0 mi East 25.3 mph 29.9 mph N/A Snow Light Snow